Regional Weather Roundup
Issued by NWS Sterling, VA

Home | Current Version | Previous Version | Text Only | Print | Product List | Glossary Off
Versions: 1 2 3 4 5 6 7 8 9 10 11 12 13 14 15 16 17 18 19 20 21 22 23 24 25 26 27 28 29 30 31 32 33 34 35 36 37 38 39 40 41 42 43 44 45 46 47 48 49 50

000
ASUS41 KLWX 220310
RWRLWX

REGIONAL WEATHER ROUNDUP
NATIONAL WEATHER SERVICE BALTIMORE MD/WASHINGTON DC
1100 PM EDT TUE OCT 21 2014

Note: "FAIR" indicates few or no clouds below 12,000 feet
with no significant weather and/or obstructions to visibility.
 TC=TEMPERATURE CELSIUS

 * =Non NWS site. Station does not report precipitation (e.g. rain,
    snow, etc.), thunder, or fog.

DCZ001-MDZ009-015-VAZ040>042-051-053>054-220400-
WASHINGTON METRO

CITY           SKY/WX    TMP DP  RH WIND       PRES   REMARKS
WASHINGTON NAT LGT RAIN  56  50  80 N10       29.93S
DULLES         LGT RAIN  52  50  93 N8        29.93S
ANDREWS AFB    RAIN      54  52  93 NW10      29.91R
QUANTICO       CLOUDY    54  50  86 N10       29.92S
COLLEGE PARK*  CLOUDY    54  52  94 NW5       29.92R
LEESBURG*      LGT RAIN  52  52 100 CALM      29.94S
MANASSAS*      CLOUDY    54  54 100 N7        29.93R
GAITHERSBURG*  CLOUDY    52  48  87 W5        29.97R

$$

MDZ006>007-011-014-220400-
BALTIMORE METRO

CITY           SKY/WX    TMP DP  RH WIND       PRES   REMARKS
BWI AIRPORT    LGT RAIN  53  52  96 W6        29.91R FOG
MD SCIENCE CTR   N/A     56  52  86 MISG      29.92R
MARTIN STATE   RAIN      55  54  94 NW8       29.92S
ANNAPOLIS      LGT RAIN  56  52  86 NW12      29.90R
FORT MEADE*    CLOUDY    52  50  93 NW3       29.94R

$$

MDZ012-015-019>023-220400-
MARYLAND EASTERN SHORE

CITY           SKY/WX    TMP DP  RH WIND       PRES   REMARKS
OCEAN CITY     LGT RAIN  58  53  84 W12G18    29.86R
SALISBURY      RAIN      58  55  90 SW5       29.88R FOG
BAY BRIDGE AP*   N/A     55  54  94 N15G22    29.89S
CAMBRIDGE*     CLOUDY    57  54  88 NW3       29.88S
EASTON*        CLOUDY    57  57 100 CALM      29.92

$$

MDZ017>025-220400-
SOUTHERN MARYLAND

CITY           SKY/WX    TMP DP  RH WIND       PRES   REMARKS
PATUXENT RIVER LGT RAIN  56  52  86 N13       29.87F
ST INIGOES     CLOUDY    57  50  77 VRB6      29.87F
LEONARDTOWN*   CLOUDY    54  50  87 CALM      29.90S

$$

MDZ003>005-220400-
NORTH CENTRAL MARYLAND

CITY           SKY/WX    TMP DP  RH WIND       PRES   REMARKS
FREDERICK*     LGT RAIN  55  50  82 CALM      29.96R
HAGERSTOWN APT CLOUDY    50  48  93 W3        29.93S
WESTMINSTER*   LGT RAIN  52  50  93 CALM      29.91F

$$

MDZ501>502-220400-
WESTERN MARYLAND

CITY           SKY/WX    TMP DP  RH WIND       PRES   REMARKS
OAKLAND*       FOG       41 N/A N/A NW7       29.98R VSB 1/4
CUMBERLAND*    CLOUDY    52  46  82 NE5       30.01R

$$

VAZ025>031-220400-
SHENANDOAH VALLEY

CITY           SKY/WX    TMP DP  RH WIND       PRES   REMARKS
WINCHESTER*    MOCLDY    52  45  76 NW6       29.95R
FRONT ROYAL*   MOCLDY    50  46  87 NW3       29.94R
LURAY*         CLOUDY    54  46  76 CALM      29.95S
NEW MARKET*    CLOUDY    49  48  96 CALM      29.95S
STAUNTON*      CLOUDY    53  43  70 N6        29.97S
WAYNESBORO*    CLOUDY    51  45  80 NW5       29.95S

$$

WVZ021-048>050-054>055-220400-
EASTERN WEST VIRGINIA PANHANDLE

CITY           SKY/WX    TMP DP  RH WIND       PRES   REMARKS
MARTINSBURG    MOCLDY    53  44  71 NW7       29.95R
PETERSBURG*    CLOUDY   N/A N/A N/A CALM      29.99R

$$

VAZ036>039-050-220400-
CENTRAL FOOTHILLS

CITY           SKY/WX    TMP DP  RH WIND       PRES   REMARKS
CHARLOTTESVILL LGT RAIN  53  46  77 NW3       29.93S
CULPEPER*      MOCLDY    54  52  94 NW3       29.93S
ORANGE*        CLOUDY    54  50  87 W3        29.94S
GORDONSVILLE*  CLOUDY    53  50  89 NW3       29.92S
WARRENTON*     CLOUDY    53  53 100 CALM      29.92S FOG

$$

VAZ055>057-220400-
NORTH AND CENTRAL PIEDMONT

CITY           SKY/WX    TMP DP  RH WIND       PRES   REMARKS
FREDERICKSBRG* MOCLDY    55  54  98 NW3       29.91R
STAFFORD*      MOCLDY    52  52 100 NW10      29.95S

$$

NCZ024-NYZ072-PAZ021-071-VAZ022-071-220400-
OTHER REGIONAL OBSERVATIONS

CITY           SKY/WX    TMP DP  RH WIND       PRES   REMARKS
NEW YORK CITY  CLOUDY    56  53  90 VRB5      29.93S
PHILADELPHIA   MOCLDY    60  52  74 NE10      29.88S
PITTSBURGH     DRIZZLE   47  46  97 NW7       30.03R FOG
ROANOKE        LGT RAIN  51  39  63 NW8       30.01R
RICHMOND       CLOUDY    57  51  80 NW8       29.91R
RALEIGH        MOCLDY    59  40  49 VRB6      29.95R

$$

ANZ530>537-220400-
MARINE OBSERVATIONS

STATION/POSITION TIME  TEMP    WIND        PRES
                       AIR SEA DIR/SP/G
                 (UTC) (F)     (DEG/KT/KT) (MB)
THOMAS PT LIGHT  0300   56 64  340/ 13/ 15 1013.1R
BALT KEY BRIDGE  0300   56     330/ 12/ 14 1012.2S
COVE POINT       0300   56     350/ 17/ 20 1011.8F
LEWISETTA        0300   58 65  360/  9/ 13 1011.2R
SOLOMONS ISLAND  0300      66                N/A
PINEY POINT      0300          360/ 12/ 14   N/A

$$




USA.gov is the U.S. government's official web portal to all federal, state and local government web resources and services.